Regional Weather Roundup
Issued by NWS

Home | Current Version | Previous Version | Graphics & Text | Print | Product List | Glossary On
Versions: 1 2 3 4 5 6 7 8 9 10 11 12 13 14 15 16 17 18 19 20 21 22 23 24 25 26 27 28 29 30 31 32 33 34 35 36 37 38 39 40 41 42 43 44 45 46 47 48 49 50
000
ASUS43 KOAX 261910
RWRNE

WEATHER ROUNDUP FOR NEBRASKA
NATIONAL WEATHER SERVICE OMAHA NE
100 PM CST THU FEB 26 2015

NOTES: SATELLITE DATA IS BEING USED TO AUGMENT CLOUD COVER ABOVE
       12000 FEET.
       "FAIR" INDICATES FEW OR NO CLOUDS BELOW 12,000 FEET WITH NO
       SIGNIFICANT WEATHER AND/OR OBSTRUCTIONS TO VISIBILITY.

  * THESE STATIONS DO NOT REPORT WEATHER SUCH AS RAIN...SNOW OR FOG.

NEZ001>004-019>022-054>056-262000-
NEBRASKA PANHANDLE

CITY           SKY/WX    TMP DP  RH WIND       PRES   REMARKS
SCOTTSBLUFF    CLOUDY    15   2  56 N9        30.31F WCI   3
ALLIANCE       CLOUDY    11   2  67 N7        30.31F WCI   0
CHADRON        LGT SNOW  10   2  69 NE3       30.40F
KIMBALL        LGT SNOW  12   5  74 CALM      30.21S
SIDNEY         LGT SNOW  15   6  67 N7        30.28S WCI   5
$$

NEZ057>060-069>072-079>082-262000-
SOUTHWEST NEBRASKA

CITY           SKY/WX    TMP DP  RH WIND       PRES   REMARKS
NORTH PLATTE   MOSUNNY   18  -2  41 N17G23    30.39F WCI   3
IMPERIAL         N/A     19   2  47 N15G22    30.35F WCI   5
LEXINGTON      SUNNY     18  -5  36 N15       30.42F WCI   4
MCCOOK         MOSUNNY   23   0  36 N10G20    30.41F WCI  12
OGALLALA       PTSUNNY   19   2  47 N9G17     30.36S WCI   8
$$

NEZ005>010-023>029-035>040-094-262000-
NORTH CENTRAL NEBRASKA

CITY           SKY/WX    TMP DP  RH WIND       PRES   REMARKS
VALENTINE      MOSUNNY    9  -2  61 NW13      30.45F WCI  -7
AINSWORTH      SUNNY      9  -3  58 NW16G23   30.44S WCI  -9
BROKEN BOW     SUNNY     15  -4  42 N17G26    30.42F WCI  -1
O`NEILL        PTSUNNY   10   0  65 N14       30.47F WCI  -6
ORD            SUNNY     14  -6  40 N15G22    30.46S WCI  -1
THEDFORD       MOSUNNY   14  -1  52 N15       30.41S WCI  -1
$$

NEZ041-046>049-061>064-073>077-083>087-262000-
SOUTH CENTRAL NEBRASKA

CITY           SKY/WX    TMP DP  RH WIND       PRES   REMARKS
GRAND ISLAND   SUNNY     13  -5  44 N13G22    30.48F WCI  -2
AURORA         SUNNY     13  -5  45 N14G22    30.48S WCI  -2
HASTINGS       SUNNY     15  -5  40 N17G23    30.45F WCI  -1
HEBRON         SUNNY     16  -5  39 N17       30.49F WCI   0
HOLDREGE       SUNNY     17  -4  38 N12G22    30.43F WCI   4
KEARNEY *      SUNNY     16  -4  41 N16       30.44F WCI   0
YORK           MOSUNNY   14   0  52 N15G26    30.48F WCI  -1
$$

NEZ011>018-030>034-042>045-262000-
NORTHEAST NEBRASKA

CITY           SKY/WX    TMP DP  RH WIND       PRES   REMARKS
NORFOLK        CLOUDY    10   0  63 N12G23    30.48F WCI  -5
ALBION         PTSUNNY    9  -1  62 N14       30.49S WCI  -7
BLAIR          PTSUNNY    9  -1  63 N17       30.48S WCI  -9
COLUMBUS *     PTSUNNY   10  -6  48 N18       30.52F WCI  -8
FREMONT        PTSUNNY   11   1  62 NW13G21   30.51F WCI  -4
TEKAMAH        MOSUNNY   11  -1  58 N20       30.53F WCI  -7
WAYNE          CLOUDY     9  -1  63 NW16G24   30.50F WCI  -8
$$

NEZ050>053-065>068-078-088>093-262000-
SOUTHEAST NEBRASKA

CITY           SKY/WX    TMP DP  RH WIND       PRES   REMARKS
LINCOLN        SUNNY     14  -1  51 N21G26    30.51F WCI  -4
OMAHA EPPLEY   MOSUNNY   10   0  63 N18       30.52F WCI  -8
BEATRICE       MOSUNNY   14   2  58 N20       30.49S WCI  -4
FALLS CITY     FAIR      16  -1  47 N13G23    30.48S WCI   2
NEBRASKA CITY  MOSUNNY   11  -1  56 N16       30.48S WCI  -5
PLATTSMOUTH    MOSUNNY   10  -2  58 N12G18    30.49S WCI  -4
$$

NEZ044-045-051>053-067-262000-
OMAHA AREA

CITY           SKY/WX    TMP DP  RH WIND       PRES   REMARKS
OMAHA EPPLEY   MOSUNNY   10   0  63 N18       30.52F WCI  -8
BLAIR          PTSUNNY    9  -1  63 N17       30.48S WCI  -9
FREMONT        PTSUNNY   11   1  62 NW13G21   30.51F WCI  -4
MILLARD        MOSUNNY   10  -3  55 NW9G17    30.52S WCI  -2
OFFUTT AFB     SUNNY     11  -1  58 NW10G21   30.51S WCI  -3
PLATTSMOUTH    MOSUNNY   10  -2  58 N12G18    30.49S WCI  -4
WAHOO          CLOUDY    12   0  59 MISG      30.51S
$$


USA.gov is the U.S. government's official web portal to all federal, state and local government web resources and services.